^^
Saratoga-Weather Station Historical Data
Daily Summary for January 6, 2021 Units:  Metric    English   Both
Daily Weekly Monthly Yearly Custom
  High: Low: Average:
Temperature: 18.4 °C 14.5 °C 16.3 °C
Dew Point: 14.5 °C 12.5 °C 13.5 °C
Humidity: 90% 76% 84%
Wind Speed: 13km/h 0km/h 3.7km/h
Wind Gust: 14.5km/h - -
Wind- - WSW
Pressure: 1022.4 hPa 1021.0 hPa -
Precipitation: 0.0 mm    
Historical Graphs
 
 
Tabular Data for January 6, 2021
Time Temperature Dew Point Pressure Wind Wind Speed Wind Gust Humidity Rainfall Rate (Hourly) solar
00:03 14.9 °C 13.3 °C 1022.0 hPa West 4.7 km/h 9.7 km/h 90% 0.0 mm 0 W/m2
00:08 14.9 °C 13.3 °C 1022.0 hPa WNW 4.7 km/h 12.9 km/h 90% 0.0 mm 0 W/m2
00:13 14.9 °C 13.3 °C 1022.0 hPa West 4.7 km/h 9.7 km/h 90% 0.0 mm 0 W/m2
00:18 14.9 °C 13.3 °C 1022.0 hPa West 9.7 km/h 11.3 km/h 90% 0.0 mm 0 W/m2
00:23 14.9 °C 13.3 °C 1022.0 hPa WNW 3.2 km/h 12.9 km/h 90% 0.0 mm 0 W/m2
00:28 14.9 °C 13.3 °C 1022.4 hPa WSW 4.7 km/h 9.7 km/h 90% 0.0 mm 0 W/m2
00:33 14.9 °C 13.3 °C 1022.4 hPa SW 3.2 km/h 12.9 km/h 90% 0.0 mm 0 W/m2
00:38 14.9 °C 13.3 °C 1022.4 hPa WNW 1.4 km/h 6.4 km/h 90% 0.0 mm 0 W/m2
00:43 14.9 °C 13.3 °C 1022.4 hPa WNW 3.2 km/h 4.8 km/h 90% 0.0 mm 0 W/m2
00:48 14.8 °C 13.2 °C 1022.4 hPa West 4.7 km/h 6.4 km/h 90% 0.0 mm 0 W/m2
00:53 14.8 °C 13.2 °C 1022.4 hPa West 4.7 km/h 9.7 km/h 90% 0.0 mm 0 W/m2
00:58 14.8 °C 13.2 °C 1022.4 hPa WNW 3.2 km/h 6.4 km/h 90% 0.0 mm 0 W/m2
01:03 14.8 °C 13.2 °C 1022.4 hPa West 4.7 km/h 9.7 km/h 90% 0.0 mm 0 W/m2
01:08 14.8 °C 13.2 °C 1022.4 hPa WSW 6.4 km/h 8 km/h 90% 0.0 mm 0 W/m2
01:13 14.8 °C 13.2 °C 1022.4 hPa WSW 3.2 km/h 6.4 km/h 90% 0.0 mm 0 W/m2
01:18 14.8 °C 13.2 °C 1022.0 hPa NW 4.7 km/h 6.4 km/h 90% 0.0 mm 0 W/m2
01:23 14.8 °C 13.2 °C 1022.0 hPa WNW 3.2 km/h 6.4 km/h 90% 0.0 mm 0 W/m2
01:28 14.8 °C 13.2 °C 1022.4 hPa WSW 4.7 km/h 9.7 km/h 90% 0.0 mm 0 W/m2
01:33 14.8 °C 13.2 °C 1022.4 hPa WSW 3.2 km/h 9.7 km/h 90% 0.0 mm 0 W/m2
01:38 14.8 °C 13.2 °C 1022.0 hPa West 3.2 km/h 8 km/h 90% 0.0 mm 0 W/m2
01:43 14.8 °C 13.2 °C 1022.4 hPa WSW 4.7 km/h 11.3 km/h 90% 0.0 mm 0 W/m2
01:48 14.8 °C 13.2 °C 1022.4 hPa WNW 1.4 km/h 8 km/h 90% 0.0 mm 0 W/m2
01:53 14.7 °C 13.1 °C 1022.0 hPa West 6.4 km/h 11.3 km/h 90% 0.0 mm 0 W/m2
01:58 14.7 °C 13.1 °C 1022.0 hPa West 3.2 km/h 4.8 km/h 90% 0.0 mm 0 W/m2
02:03 14.7 °C 13.1 °C 1022.0 hPa WSW 6.4 km/h 9.7 km/h 90% 0.0 mm 0 W/m2
02:08 14.7 °C 13.1 °C 1022.0 hPa West 9.7 km/h 9.7 km/h 90% 0.0 mm 0 W/m2
02:13 14.7 °C 13.1 °C 1022.0 hPa WSW 4.7 km/h 12.9 km/h 90% 0.0 mm 0 W/m2
02:18 14.7 °C 13.1 °C 1022.0 hPa WNW 6.4 km/h 8 km/h 90% 0.0 mm 0 W/m2
02:23 14.7 °C 13.1 °C 1022.0 hPa WSW 6.4 km/h 12.9 km/h 90% 0.0 mm 0 W/m2
02:28 14.7 °C 13.1 °C 1022.0 hPa NW 3.2 km/h 6.4 km/h 90% 0.0 mm 0 W/m2
02:33 14.8 °C 13.2 °C 1022.0 hPa WSW 4.7 km/h 8 km/h 90% 0.0 mm 0 W/m2
02:38 14.7 °C 13.1 °C 1022.0 hPa West 6.4 km/h 6.4 km/h 90% 0.0 mm 0 W/m2
02:43 14.7 °C 13.1 °C 1022.0 hPa West 3.2 km/h 6.4 km/h 90% 0.0 mm 0 W/m2
02:48 14.7 °C 13.1 °C 1022.0 hPa West 3.2 km/h 6.4 km/h 90% 0.0 mm 0 W/m2
02:53 14.7 °C 13.1 °C 1022.0 hPa West 4.7 km/h 6.4 km/h 90% 0.0 mm 0 W/m2
02:58 14.7 °C 13.1 °C 1022.0 hPa WNW 4.7 km/h 6.4 km/h 90% 0.0 mm 0 W/m2
03:03 14.7 °C 13.1 °C 1022.0 hPa WNW 3.2 km/h 4.8 km/h 90% 0.0 mm 0 W/m2
03:08 14.7 °C 13.1 °C 1022.0 hPa West 3.2 km/h 6.4 km/h 90% 0.0 mm 0 W/m2
03:13 14.7 °C 13.1 °C 1022.0 hPa West 3.2 km/h 4.8 km/h 90% 0.0 mm 0 W/m2
03:18 14.7 °C 13.1 °C 1022.0 hPa WNW 3.2 km/h 4.8 km/h 90% 0.0 mm 0 W/m2
03:23 14.7 °C 13.1 °C 1022.0 hPa West 3.2 km/h 4.8 km/h 90% 0.0 mm 0 W/m2
03:28 14.7 °C 13.1 °C 1021.7 hPa West 3.2 km/h 3.2 km/h 90% 0.0 mm 0 W/m2
03:33 14.7 °C 13.1 °C 1021.7 hPa WNW 4.7 km/h 4.8 km/h 90% 0.0 mm 0 W/m2
03:38 14.8 °C 13.2 °C 1021.7 hPa West 3.2 km/h 6.4 km/h 90% 0.0 mm 0 W/m2
03:43 14.8 °C 13.2 °C 1021.7 hPa SW 1.4 km/h 6.4 km/h 90% 0.0 mm 0 W/m2
03:48 14.8 °C 13.2 °C 1021.7 hPa West 1.4 km/h 3.2 km/h 90% 0.0 mm 0 W/m2
03:53 14.7 °C 13.1 °C 1021.7 hPa WSW 3.2 km/h 6.4 km/h 90% 0.0 mm 0 W/m2
03:58 14.7 °C 13.1 °C 1021.7 hPa WSW 1.4 km/h 4.8 km/h 90% 0.0 mm 0 W/m2
04:03 14.7 °C 13.1 °C 1021.7 hPa WSW 3.2 km/h 3.2 km/h 90% 0.0 mm 0 W/m2
04:08 14.7 °C 13.1 °C 1021.7 hPa Calm   4.8 km/h 90% 0.0 mm 0 W/m2
04:13 14.7 °C 13.1 °C 1021.7 hPa Calm     90% 0.0 mm 0 W/m2
04:18 14.7 °C 13.1 °C 1021.7 hPa WSW 1.4 km/h 4.8 km/h 90% 0.0 mm 0 W/m2
04:23 14.8 °C 13.2 °C 1021.7 hPa Calm   3.2 km/h 90% 0.0 mm 0 W/m2
04:28 14.8 °C 13.2 °C 1021.7 hPa Calm   4.8 km/h 90% 0.0 mm 0 W/m2
04:33 14.7 °C 13.1 °C 1021.7 hPa West 3.2 km/h 3.2 km/h 90% 0.0 mm 0 W/m2
04:38 14.7 °C 13.1 °C 1021.7 hPa West 1.4 km/h 3.2 km/h 90% 0.0 mm 0 W/m2
04:43 14.7 °C 13.1 °C 1021.7 hPa West 4.7 km/h 4.8 km/h 90% 0.0 mm 0 W/m2
04:48 14.7 °C 13.1 °C 1021.7 hPa West 6.4 km/h 6.4 km/h 90% 0.0 mm 0 W/m2
04:53 14.7 °C 12.9 °C 1021.7 hPa West 4.7 km/h 11.3 km/h 89% 0.0 mm 0 W/m2
04:58 14.7 °C 12.9 °C 1021.7 hPa West 4.7 km/h 9.7 km/h 89% 0.0 mm 0 W/m2
05:03 14.7 °C 12.9 °C 1021.7 hPa NW 4.7 km/h 11.3 km/h 89% 0.0 mm 0 W/m2
05:08 14.7 °C 12.9 °C 1021.7 hPa NW 3.2 km/h 8 km/h 89% 0.0 mm 0 W/m2
05:13 14.7 °C 12.9 °C 1021.7 hPa West 6.4 km/h 11.3 km/h 89% 0.0 mm 0 W/m2
05:18 14.7 °C 12.9 °C 1021.7 hPa WNW 4.7 km/h 6.4 km/h 89% 0.0 mm 0 W/m2
05:23 14.7 °C 12.9 °C 1021.7 hPa NW 11.3 km/h 11.3 km/h 89% 0.0 mm 0 W/m2
05:28 14.7 °C 12.9 °C 1021.7 hPa WNW 3.2 km/h 4.8 km/h 89% 0.0 mm 0 W/m2
05:33 14.7 °C 12.9 °C 1021.7 hPa NW 3.2 km/h 4.8 km/h 89% 0.0 mm 0 W/m2
05:38 14.7 °C 12.9 °C 1021.7 hPa West 4.7 km/h 6.4 km/h 89% 0.0 mm 0 W/m2
05:43 14.6 °C 12.8 °C 1021.7 hPa WSW 3.2 km/h 4.8 km/h 89% 0.0 mm 0 W/m2
05:48 14.6 °C 12.8 °C 1021.3 hPa WNW 3.2 km/h 6.4 km/h 89% 0.0 mm 0 W/m2
05:53 14.6 °C 12.6 °C 1021.7 hPa WNW 7.9 km/h 11.3 km/h 88% 0.0 mm 0 W/m2
05:58 14.6 °C 12.6 °C 1021.7 hPa WNW 4.7 km/h 8 km/h 88% 0.0 mm 0 W/m2
06:03 14.6 °C 12.6 °C 1021.7 hPa West 6.4 km/h 9.7 km/h 88% 0.0 mm 5 W/m2
06:08 14.6 °C 12.6 °C 1021.7 hPa WNW 3.2 km/h 11.3 km/h 88% 0.0 mm 5 W/m2
06:13 14.6 °C 12.8 °C 1021.7 hPa WNW 1.4 km/h 4.8 km/h 89% 0.0 mm 7 W/m2
06:18 14.6 °C 12.8 °C 1021.7 hPa West 3.2 km/h 6.4 km/h 89% 0.0 mm 7 W/m2
06:23 14.6 °C 12.6 °C 1021.7 hPa West 6.4 km/h 9.7 km/h 88% 0.0 mm 9 W/m2
06:28 14.5 °C 12.7 °C 1021.7 hPa WNW 3.2 km/h 9.7 km/h 89% 0.0 mm 11 W/m2
06:33 14.5 °C 12.5 °C 1021.7 hPa West 3.2 km/h 8 km/h 88% 0.0 mm 12 W/m2
06:38 14.6 °C 12.6 °C 1021.7 hPa NNW 3.2 km/h 9.7 km/h 88% 0.0 mm 18 W/m2
06:43 14.6 °C 12.6 °C 1021.7 hPa West 3.2 km/h 6.4 km/h 88% 0.0 mm 23 W/m2
06:48 14.6 °C 12.6 °C 1021.7 hPa WSW 6.4 km/h 14.5 km/h 88% 0.0 mm 30 W/m2
06:53 14.6 °C 12.6 °C 1021.3 hPa West 4.7 km/h 9.7 km/h 88% 0.0 mm 35 W/m2
06:58 14.6 °C 12.6 °C 1021.3 hPa WNW 4.7 km/h 11.3 km/h 88% 0.0 mm 42 W/m2
07:03 14.6 °C 12.8 °C 1021.3 hPa West 3.2 km/h 9.7 km/h 89% 0.0 mm 54 W/m2
07:08 14.6 °C 12.6 °C 1021.3 hPa West 3.2 km/h 6.4 km/h 88% 0.0 mm 65 W/m2
07:13 14.7 °C 12.9 °C 1021.3 hPa NW 3.2 km/h 9.7 km/h 89% 0.0 mm 74 W/m2
07:18 14.7 °C 12.7 °C 1021.3 hPa WNW 3.2 km/h 4.8 km/h 88% 0.0 mm 86 W/m2
07:23 14.7 °C 12.7 °C 1021.3 hPa NW 1.4 km/h 4.8 km/h 88% 0.0 mm 83 W/m2
07:28 14.8 °C 13 °C 1021.3 hPa WSW 1.4 km/h 3.2 km/h 89% 0.0 mm 98 W/m2
07:33 14.9 °C 13.1 °C 1021.3 hPa NE 3.2 km/h 4.8 km/h 89% 0.0 mm 125 W/m2
07:38 15 °C 13 °C 1021.3 hPa ENE 6.4 km/h 9.7 km/h 88% 0.0 mm 130 W/m2
07:43 15.1 °C 13.1 °C 1021.3 hPa ENE 3.2 km/h 3.2 km/h 88% 0.0 mm 176 W/m2
07:48 15.2 °C 13.2 °C 1021.3 hPa North 1.4 km/h 9.7 km/h 88% 0.0 mm 139 W/m2
07:53 15.2 °C 13 °C 1021.3 hPa Calm   6.4 km/h 87% 0.0 mm 135 W/m2
07:58 15.2 °C 13 °C 1021.3 hPa WNW 3.2 km/h 4.8 km/h 87% 0.0 mm 149 W/m2
08:03 15.2 °C 13 °C 1021.3 hPa NNE 1.4 km/h 3.2 km/h 87% 0.0 mm 105 W/m2
08:09 15.2 °C 13 °C 1021.7 hPa East 3.2 km/h 8 km/h 87% 0.0 mm 105 W/m2
08:14 15.3 °C 13.1 °C 1021.7 hPa NNW 1.4 km/h 3.2 km/h 87% 0.0 mm 125 W/m2
08:19 15.3 °C 13.1 °C 1021.7 hPa East 4.7 km/h 11.3 km/h 87% 0.0 mm 77 W/m2
08:24 15.2 °C 12.9 °C 1021.7 hPa NE 3.2 km/h 8 km/h 86% 0.0 mm 81 W/m2
08:29 15.1 °C 13 °C 1021.7 hPa WNW 3.2 km/h 6.4 km/h 87% 0.0 mm 100 W/m2
08:34 15.1 °C 13 °C 1021.7 hPa NNW 6.4 km/h 6.4 km/h 87% 0.0 mm 90 W/m2
08:39 15.1 °C 13 °C 1021.7 hPa NNE 1.4 km/h 6.4 km/h 87% 0.0 mm 100 W/m2
08:44 15.1 °C 13 °C 1021.7 hPa East 4.7 km/h 8 km/h 87% 0.0 mm 76 W/m2
08:49 15.1 °C 13 °C 1021.7 hPa WNW 1.4 km/h 4.8 km/h 87% 0.0 mm 63 W/m2
08:54 15.1 °C 13 °C 1021.7 hPa NNW 3.2 km/h 6.4 km/h 87% 0.0 mm 56 W/m2
08:59 15.1 °C 13 °C 1021.7 hPa Calm   6.4 km/h 87% 0.0 mm 116 W/m2
09:04 15.1 °C 13 °C 1021.7 hPa ESE 1.4 km/h 8 km/h 87% 0.0 mm 167 W/m2
09:09 15.2 °C 13 °C 1021.7 hPa Calm   3.2 km/h 87% 0.0 mm 179 W/m2
09:14 15.3 °C 13.1 °C 1021.7 hPa Calm   6.4 km/h 87% 0.0 mm 193 W/m2
09:19 15.4 °C 13.2 °C 1021.7 hPa Calm   1.6 km/h 87% 0.0 mm 262 W/m2
09:24 15.6 °C 13.3 °C 1021.7 hPa Calm   4.8 km/h 86% 0.0 mm 267 W/m2
09:34 15.7 °C 13.2 °C 1021.7 hPa WNW 3.2 km/h 12.9 km/h 85% 0.0 mm 151 W/m2
09:39 15.7 °C 13.2 °C 1021.7 hPa NNW 4.7 km/h 6.4 km/h 85% 0.0 mm 195 W/m2
09:44 15.7 °C 13.2 °C 1022.0 hPa NE 6.4 km/h 9.7 km/h 85% 0.0 mm 192 W/m2
09:49 15.7 °C 13.2 °C 1022.0 hPa WNW 9.7 km/h 11.3 km/h 85% 0.0 mm 186 W/m2
09:54 15.7 °C 13.2 °C 1022.0 hPa East 1.4 km/h 8 km/h 85% 0.0 mm 185 W/m2
09:59 15.7 °C 13 °C 1022.0 hPa NE 1.4 km/h 4.8 km/h 84% 0.0 mm 162 W/m2
10:04 15.7 °C 13 °C 1022.0 hPa NW 6.4 km/h 8 km/h 84% 0.0 mm 158 W/m2
10:09 15.7 °C 13.2 °C 1022.0 hPa North 3.2 km/h 6.4 km/h 85% 0.0 mm 178 W/m2
10:14 15.7 °C 13 °C 1022.0 hPa North 3.2 km/h 8 km/h 84% 0.0 mm 202 W/m2
10:19 15.7 °C 13 °C 1022.0 hPa SE 1.4 km/h 8 km/h 84% 0.0 mm 207 W/m2
10:24 15.8 °C 13.1 °C 1022.0 hPa NNW 4.7 km/h 8 km/h 84% 0.0 mm 213 W/m2
10:29 15.8 °C 13.1 °C 1022.0 hPa NNW 1.4 km/h 9.7 km/h 84% 0.0 mm 214 W/m2
10:34 15.8 °C 13.1 °C 1022.0 hPa WNW 6.4 km/h 11.3 km/h 84% 0.0 mm 174 W/m2
10:39 15.8 °C 13.1 °C 1022.0 hPa NW 4.7 km/h 9.7 km/h 84% 0.0 mm 193 W/m2
10:44 15.8 °C 13.1 °C 1022.0 hPa NNW 1.4 km/h 8 km/h 84% 0.0 mm 178 W/m2
10:49 15.8 °C 13.1 °C 1022.0 hPa WNW 6.4 km/h 8 km/h 84% 0.0 mm 179 W/m2
10:54 15.8 °C 13.1 °C 1022.0 hPa WNW 3.2 km/h 6.4 km/h 84% 0.0 mm 172 W/m2
10:59 15.8 °C 13.1 °C 1022.0 hPa NE 6.4 km/h 8 km/h 84% 0.0 mm 174 W/m2
11:04 15.9 °C 13.2 °C 1022.0 hPa NNW 6.4 km/h 9.7 km/h 84% 0.0 mm 181 W/m2
11:09 15.9 °C 13.2 °C 1022.0 hPa ENE 1.4 km/h 4.8 km/h 84% 0.0 mm 190 W/m2
11:14 16 °C 13.3 °C 1022.0 hPa WNW 1.4 km/h 8 km/h 84% 0.0 mm 190 W/m2
11:19 16.1 °C 13.4 °C 1022.0 hPa North 1.4 km/h 4.8 km/h 84% 0.0 mm 218 W/m2
11:24 16.2 °C 13.5 °C 1022.0 hPa NNW 13 km/h 12.9 km/h 84% 0.0 mm 213 W/m2
11:29 16.3 °C 13.4 °C 1022.0 hPa NW 3.2 km/h 4.8 km/h 83% 0.0 mm 237 W/m2
11:34 16.3 °C 13.4 °C 1022.4 hPa NNE 3.2 km/h 4.8 km/h 83% 0.0 mm 251 W/m2
11:39 16.3 °C 13.4 °C 1022.0 hPa NE 4.7 km/h 6.4 km/h 83% 0.0 mm 279 W/m2
11:44 16.5 °C 13.4 °C 1022.0 hPa Calm   4.8 km/h 82% 0.0 mm 301 W/m2
11:49 16.6 °C 13.7 °C 1022.0 hPa Calm   6.4 km/h 83% 0.0 mm 285 W/m2
11:54 16.7 °C 13.6 °C 1022.4 hPa WNW 1.4 km/h 8 km/h 82% 0.0 mm 257 W/m2
11:59 16.8 °C 13.7 °C 1022.4 hPa WNW 6.4 km/h 6.4 km/h 82% 0.0 mm 213 W/m2
12:04 16.8 °C 13.7 °C 1022.4 hPa ENE 3.2 km/h 4.8 km/h 82% 0.0 mm 209 W/m2
12:09 16.9 °C 13.6 °C 1022.4 hPa WNW 1.4 km/h 6.4 km/h 81% 0.0 mm 246 W/m2
12:14 16.9 °C 13.6 °C 1022.4 hPa SW 1.4 km/h 4.8 km/h 81% 0.0 mm 290 W/m2
12:19 16.9 °C 13.6 °C 1022.4 hPa North 4.7 km/h 4.8 km/h 81% 0.0 mm 279 W/m2
12:24 16.9 °C 13.6 °C 1022.4 hPa NNW 6.4 km/h 8 km/h 81% 0.0 mm 250 W/m2
12:29 16.9 °C 13.6 °C 1022.4 hPa North 3.2 km/h 8 km/h 81% 0.0 mm 248 W/m2
12:34 17 °C 13.7 °C 1022.4 hPa ENE 6.4 km/h 9.7 km/h 81% 0.0 mm 279 W/m2
12:39 17.1 °C 13.6 °C 1022.4 hPa ESE 1.4 km/h 6.4 km/h 80% 0.0 mm 253 W/m2
12:44 17.1 °C 13.8 °C 1022.4 hPa ENE 6.4 km/h 12.9 km/h 81% 0.0 mm 230 W/m2
12:49 17.1 °C 13.6 °C 1022.4 hPa NW 1.4 km/h 6.4 km/h 80% 0.0 mm 223 W/m2
12:54 17.1 °C 13.6 °C 1022.4 hPa NNE 4.7 km/h 6.4 km/h 80% 0.0 mm 223 W/m2
12:59 17.1 °C 13.8 °C 1022.4 hPa ENE 3.2 km/h 4.8 km/h 81% 0.0 mm 223 W/m2
13:04 17.1 °C 13.8 °C 1022.4 hPa NW 3.2 km/h 6.4 km/h 81% 0.0 mm 262 W/m2
13:09 17 °C 13.7 °C 1022.4 hPa Calm   9.7 km/h 81% 0.0 mm 230 W/m2
13:14 17 °C 13.5 °C 1022.4 hPa NNW 3.2 km/h 11.3 km/h 80% 0.0 mm 229 W/m2
13:19 16.9 °C 13.6 °C 1022.4 hPa WNW 1.4 km/h 4.8 km/h 81% 0.0 mm 216 W/m2
13:24 16.9 °C 13.6 °C 1022.4 hPa NE 1.4 km/h 6.4 km/h 81% 0.0 mm 230 W/m2
13:29 17 °C 13.9 °C 1022.4 hPa NNE 1.4 km/h 4.8 km/h 82% 0.0 mm 229 W/m2
13:34 17.1 °C 13.8 °C 1022.4 hPa WNW 3.2 km/h 6.4 km/h 81% 0.0 mm 202 W/m2
13:39 17.1 °C 13.8 °C 1022.4 hPa NNW 6.4 km/h 8 km/h 81% 0.0 mm 179 W/m2
13:44 16.9 °C 13.6 °C 1022.4 hPa NW 1.4 km/h 6.4 km/h 81% 0.0 mm 171 W/m2
13:49 16.8 °C 13.5 °C 1022.0 hPa West 4.7 km/h 11.3 km/h 81% 0.0 mm 181 W/m2
13:54 16.7 °C 13.6 °C 1022.0 hPa WNW 3.2 km/h 3.2 km/h 82% 0.0 mm 199 W/m2
13:59 16.8 °C 13.5 °C 1022.0 hPa NW 4.7 km/h 11.3 km/h 81% 0.0 mm 206 W/m2
14:04 16.8 °C 13.7 °C 1022.0 hPa NNW 7.9 km/h 8 km/h 82% 0.0 mm 213 W/m2
14:09 16.9 °C 13.6 °C 1022.0 hPa NNW 3.2 km/h 8 km/h 81% 0.0 mm 223 W/m2
14:14 16.9 °C 13.6 °C 1022.0 hPa ESE 3.2 km/h 6.4 km/h 81% 0.0 mm 236 W/m2
14:19 17.1 °C 13.8 °C 1022.0 hPa NE 6.4 km/h 8 km/h 81% 0.0 mm 243 W/m2
14:24 17.1 °C 13.6 °C 1021.7 hPa NNW 3.2 km/h 8 km/h 80% 0.0 mm 281 W/m2
14:29 17.1 °C 13.6 °C 1021.7 hPa WNW 4.7 km/h 9.7 km/h 80% 0.0 mm 311 W/m2
14:34 17.1 °C 13.6 °C 1022.0 hPa West 6.4 km/h 11.3 km/h 80% 0.0 mm 285 W/m2
14:39 17 °C 13.5 °C 1022.0 hPa Calm   8 km/h 80% 0.0 mm 295 W/m2
14:44 17.1 °C 13.8 °C 1022.0 hPa North 3.2 km/h 6.4 km/h 81% 0.0 mm 287 W/m2
14:49 17.2 °C 13.7 °C 1022.0 hPa WNW 4.7 km/h 6.4 km/h 80% 0.0 mm 294 W/m2
14:54 17.3 °C 13.6 °C 1021.7 hPa WNW 6.4 km/h 11.3 km/h 79% 0.0 mm 290 W/m2
14:59 17.2 °C 13.5 °C 1021.7 hPa WNW 4.7 km/h 6.4 km/h 79% 0.0 mm 304 W/m2
15:04 17.3 °C 13.6 °C 1022.0 hPa WNW 3.2 km/h 12.9 km/h 79% 0.0 mm 308 W/m2
15:09 17.4 °C 13.7 °C 1022.0 hPa NNW 6.4 km/h 6.4 km/h 79% 0.0 mm 360 W/m2
15:14 17.6 °C 13.9 °C 1022.0 hPa WNW 1.4 km/h 12.9 km/h 79% 0.0 mm 373 W/m2
15:19 17.7 °C 13.8 °C 1022.0 hPa NNW 3.2 km/h 8 km/h 78% 0.0 mm 418 W/m2
15:24 17.8 °C 13.9 °C 1021.7 hPa Calm   8 km/h 78% 0.0 mm 364 W/m2
15:29 18 °C 13.9 °C 1021.7 hPa WNW 3.2 km/h 6.4 km/h 77% 0.0 mm 352 W/m2
15:34 18.1 °C 14 °C 1021.7 hPa ENE 1.4 km/h 4.8 km/h 77% 0.0 mm 338 W/m2
15:40 18.1 °C 13.8 °C 1021.7 hPa WNW 1.4 km/h 4.8 km/h 76% 0.0 mm 339 W/m2
15:45 18.1 °C 14 °C 1021.7 hPa Calm   8 km/h 77% 0.0 mm 327 W/m2
15:50 18.1 °C 13.8 °C 1021.7 hPa WNW 3.2 km/h 8 km/h 76% 0.0 mm 316 W/m2
15:55 18.1 °C 13.8 °C 1021.7 hPa WNW 6.4 km/h 11.3 km/h 76% 0.0 mm 329 W/m2
16:00 18.1 °C 13.8 °C 1021.7 hPa East 1.4 km/h 9.7 km/h 76% 0.0 mm 302 W/m2
16:05 18.2 °C 13.9 °C 1021.7 hPa Calm   8 km/h 76% 0.0 mm 239 W/m2
16:10 18.1 °C 13.8 °C 1021.7 hPa NNW 4.7 km/h 6.4 km/h 76% 0.0 mm 214 W/m2
16:15 18.1 °C 14 °C 1021.7 hPa WNW 11.1 km/h 11.3 km/h 77% 0.0 mm 236 W/m2
16:20 18.1 °C 13.8 °C 1022.0 hPa NNW 3.2 km/h 8 km/h 76% 0.0 mm 244 W/m2
16:25 18.1 °C 13.8 °C 1021.7 hPa WNW 4.7 km/h 8 km/h 76% 0.0 mm 220 W/m2
16:30 18 °C 13.9 °C 1021.7 hPa WNW 6.4 km/h 9.7 km/h 77% 0.0 mm 221 W/m2
16:35 18.1 °C 14 °C 1021.7 hPa Calm   8 km/h 77% 0.0 mm 227 W/m2
16:40 18.2 °C 13.9 °C 1021.7 hPa ENE 3.2 km/h 4.8 km/h 76% 0.0 mm 200 W/m2
16:45 18.3 °C 14.2 °C 1021.7 hPa NE 1.4 km/h 6.4 km/h 77% 0.0 mm 216 W/m2
16:50 18.4 °C 14.3 °C 1021.7 hPa WNW 3.2 km/h 9.7 km/h 77% 0.0 mm 234 W/m2
16:55 18.4 °C 14.3 °C 1021.7 hPa WNW 11.1 km/h 11.3 km/h 77% 0.0 mm 229 W/m2
17:00 18.3 °C 14.2 °C 1021.7 hPa West 9.7 km/h 12.9 km/h 77% 0.0 mm 244 W/m2
17:05 18.2 °C 14.1 °C 1021.3 hPa WNW 3.2 km/h 11.3 km/h 77% 0.0 mm 258 W/m2
17:10 18.3 °C 14.2 °C 1021.3 hPa West 4.7 km/h 8 km/h 77% 0.0 mm 258 W/m2
17:15 18.3 °C 14.2 °C 1021.3 hPa WNW 3.2 km/h 9.7 km/h 77% 0.0 mm 225 W/m2
17:20 18.3 °C 14.2 °C 1021.3 hPa West 4.7 km/h 9.7 km/h 77% 0.0 mm 216 W/m2
17:25 18.3 °C 14.2 °C 1021.3 hPa WNW 4.7 km/h 6.4 km/h 77% 0.0 mm 163 W/m2
17:30 18.4 °C 14.3 °C 1021.3 hPa WNW 6.4 km/h 6.4 km/h 77% 0.0 mm 111 W/m2
17:35 18.4 °C 14.1 °C 1021.3 hPa North 4.7 km/h 4.8 km/h 76% 0.0 mm 84 W/m2
17:40 18.4 °C 14.1 °C 1021.3 hPa NW 3.2 km/h 6.4 km/h 76% 0.0 mm 91 W/m2
17:45 18.4 °C 14.5 °C 1021.3 hPa NNW 4.7 km/h 6.4 km/h 78% 0.0 mm 104 W/m2
17:50 18.3 °C 14.4 °C 1021.3 hPa NNW 4.7 km/h 8 km/h 78% 0.0 mm 113 W/m2
17:55 18.3 °C 14.2 °C 1021.3 hPa NNW 3.2 km/h 4.8 km/h 77% 0.0 mm 120 W/m2
18:01 18.3 °C 14.2 °C 1021.3 hPa NW 6.4 km/h 6.4 km/h 77% 0.0 mm 121 W/m2
18:06 18.3 °C 14.2 °C 1021.3 hPa NW 3.2 km/h 9.7 km/h 77% 0.0 mm 135 W/m2
18:11 18.3 °C 14.2 °C 1021.3 hPa NNW 7.9 km/h 8 km/h 77% 0.0 mm 141 W/m2
18:16 18.3 °C 14.2 °C 1021.3 hPa NW 3.2 km/h 6.4 km/h 77% 0.0 mm 132 W/m2
18:21 18.3 °C 14 °C 1021.3 hPa West 4.7 km/h 8 km/h 76% 0.0 mm 109 W/m2
18:26 18.3 °C 14.2 °C 1021.0 hPa NE 4.7 km/h 6.4 km/h 77% 0.0 mm 107 W/m2
18:31 18.4 °C 14.3 °C 1021.0 hPa ENE 3.2 km/h 6.4 km/h 77% 0.0 mm 113 W/m2
18:36 18.4 °C 14.3 °C 1021.0 hPa WNW 3.2 km/h 8 km/h 77% 0.0 mm 84 W/m2
18:41 18.3 °C 14.2 °C 1021.0 hPa West 3.2 km/h 4.8 km/h 77% 0.0 mm 65 W/m2
18:46 18.3 °C 14.2 °C 1021.0 hPa North 7.9 km/h 8 km/h 77% 0.0 mm 72 W/m2
18:51 18.2 °C 14.1 °C 1021.0 hPa NW 4.7 km/h 6.4 km/h 77% 0.0 mm 83 W/m2
18:56 18.2 °C 14.3 °C 1021.0 hPa WNW 4.7 km/h 12.9 km/h 78% 0.0 mm 88 W/m2
19:01 18.2 °C 14.3 °C 1021.0 hPa NW 3.2 km/h 6.4 km/h 78% 0.0 mm 102 W/m2
19:06 18.2 °C 14.3 °C 1021.0 hPa West 3.2 km/h 12.9 km/h 78% 0.0 mm 118 W/m2
19:11 18.2 °C 14.3 °C 1021.0 hPa West 9.7 km/h 11.3 km/h 78% 0.0 mm 114 W/m2
19:16 18.2 °C 14.3 °C 1021.0 hPa WSW 6.4 km/h 11.3 km/h 78% 0.0 mm 102 W/m2
19:21 18.1 °C 14.4 °C 1021.0 hPa WNW 4.7 km/h 6.4 km/h 79% 0.0 mm 81 W/m2
19:26 18.1 °C 14.4 °C 1021.0 hPa NNW 3.2 km/h 6.4 km/h 79% 0.0 mm 77 W/m2
19:31 18.1 °C 14.4 °C 1021.0 hPa East 3.2 km/h 8 km/h 79% 0.0 mm 74 W/m2
19:36 18.1 °C 14.2 °C 1021.0 hPa WNW 3.2 km/h 8 km/h 78% 0.0 mm 76 W/m2
19:41 18 °C 14.3 °C 1021.0 hPa NW 6.4 km/h 9.7 km/h 79% 0.0 mm 76 W/m2
19:46 17.9 °C 14.2 °C 1021.0 hPa West 4.7 km/h 6.4 km/h 79% 0.0 mm 62 W/m2
19:51 17.9 °C 14.2 °C 1021.0 hPa WSW 4.7 km/h 6.4 km/h 79% 0.0 mm 56 W/m2
19:56 17.8 °C 14.1 °C 1021.3 hPa NW 1.4 km/h 3.2 km/h 79% 0.0 mm 58 W/m2
20:01 17.8 °C 14.1 °C 1021.3 hPa NW 3.2 km/h 4.8 km/h 79% 0.0 mm 60 W/m2
20:06 17.8 °C 14.1 °C 1021.3 hPa WNW 3.2 km/h 4.8 km/h 79% 0.0 mm 49 W/m2
20:11 17.8 °C 13.9 °C 1021.3 hPa WNW 6.4 km/h 12.9 km/h 78% 0.0 mm 42 W/m2
20:16 17.8 °C 14.1 °C 1021.3 hPa NNE 3.2 km/h 11.3 km/h 79% 0.0 mm 42 W/m2
20:21 17.7 °C 14 °C 1021.3 hPa WNW 1.4 km/h 12.9 km/h 79% 0.0 mm 42 W/m2
20:26 17.7 °C 14 °C 1021.3 hPa WNW 4.7 km/h 11.3 km/h 79% 0.0 mm 39 W/m2
20:31 17.7 °C 14 °C 1021.3 hPa WNW 3.2 km/h 8 km/h 79% 0.0 mm 37 W/m2
20:36 17.7 °C 14 °C 1021.3 hPa NNW 3.2 km/h 11.3 km/h 79% 0.0 mm 33 W/m2
20:41 17.6 °C 13.9 °C 1021.3 hPa NW 4.7 km/h 14.5 km/h 79% 0.0 mm 26 W/m2
20:46 17.6 °C 14.1 °C 1021.3 hPa NNW 4.7 km/h 8 km/h 80% 0.0 mm 18 W/m2
20:51 17.6 °C 14.1 °C 1021.3 hPa NNW 4.7 km/h 14.5 km/h 80% 0.0 mm 18 W/m2
20:56 17.5 °C 14 °C 1021.3 hPa NNW 4.7 km/h 4.8 km/h 80% 0.0 mm 16 W/m2
21:01 17.5 °C 14.2 °C 1021.3 hPa Calm   11.3 km/h 81% 0.0 mm 11 W/m2
21:06 17.4 °C 13.9 °C 1021.3 hPa WSW 6.4 km/h 6.4 km/h 80% 0.0 mm 7 W/m2
21:11 17.4 °C 13.9 °C 1021.3 hPa WNW 1.4 km/h 4.8 km/h 80% 0.0 mm 5 W/m2
21:16 17.4 °C 13.9 °C 1021.3 hPa NW 1.4 km/h 3.2 km/h 80% 0.0 mm 0 W/m2
21:21 17.3 °C 13.8 °C 1021.7 hPa NNW 3.2 km/h 6.4 km/h 80% 0.0 mm 0 W/m2
21:26 17.3 °C 13.8 °C 1021.7 hPa WNW 4.7 km/h 6.4 km/h 80% 0.0 mm 0 W/m2
21:31 17.2 °C 13.7 °C 1021.7 hPa NNW 4.7 km/h 11.3 km/h 80% 0.0 mm 0 W/m2
21:36 17.2 °C 13.7 °C 1021.7 hPa WNW 6.4 km/h 9.7 km/h 80% 0.0 mm 0 W/m2
21:41 17.2 °C 13.7 °C 1021.7 hPa WSW 6.4 km/h 12.9 km/h 80% 0.0 mm 0 W/m2
21:46 17.1 °C 13.8 °C 1021.7 hPa WNW 3.2 km/h 6.4 km/h 81% 0.0 mm 0 W/m2
21:51 17.1 °C 13.8 °C 1021.7 hPa WNW 3.2 km/h 4.8 km/h 81% 0.0 mm 0 W/m2
21:56 17.1 °C 13.8 °C 1021.7 hPa Calm   3.2 km/h 81% 0.0 mm 0 W/m2
22:01 17.1 °C 13.8 °C 1021.7 hPa NW 3.2 km/h 4.8 km/h 81% 0.0 mm 0 W/m2
22:06 17 °C 13.7 °C 1021.7 hPa NW 6.4 km/h 8 km/h 81% 0.0 mm 0 W/m2
22:11 17 °C 13.7 °C 1021.7 hPa WNW 6.4 km/h 6.4 km/h 81% 0.0 mm 0 W/m2
22:16 16.9 °C 13.6 °C 1021.7 hPa NW 4.7 km/h 9.7 km/h 81% 0.0 mm 0 W/m2
22:21 16.9 °C 13.8 °C 1022.0 hPa WNW 4.7 km/h 6.4 km/h 82% 0.0 mm 0 W/m2
22:26 16.9 °C 13.6 °C 1022.0 hPa WNW 3.2 km/h 12.9 km/h 81% 0.0 mm 0 W/m2
22:31 16.9 °C 13.6 °C 1022.0 hPa WNW 1.4 km/h 3.2 km/h 81% 0.0 mm 0 W/m2
22:36 16.9 °C 13.8 °C 1022.0 hPa NNE 1.4 km/h 12.9 km/h 82% 0.0 mm 0 W/m2
22:41 16.8 °C 13.5 °C 1022.0 hPa ESE 1.4 km/h 4.8 km/h 81% 0.0 mm 0 W/m2
22:46 16.8 °C 13.5 °C 1022.0 hPa NNW 4.7 km/h 6.4 km/h 81% 0.0 mm 0 W/m2
22:51 16.8 °C 13.7 °C 1022.0 hPa South 1.4 km/h 3.2 km/h 82% 0.0 mm 0 W/m2
22:56 16.8 °C 13.7 °C 1022.0 hPa NNW 1.4 km/h 4.8 km/h 82% 0.0 mm 0 W/m2
23:01 16.7 °C 13.6 °C 1022.0 hPa NNE 1.4 km/h 1.6 km/h 82% 0.0 mm 0 W/m2
23:06 16.7 °C 13.6 °C 1022.0 hPa NW 3.2 km/h 4.8 km/h 82% 0.0 mm 0 W/m2
23:11 16.7 °C 13.6 °C 1022.0 hPa ENE 1.4 km/h 1.6 km/h 82% 0.0 mm 0 W/m2
23:16 16.7 °C 13.8 °C 1022.0 hPa NW 1.4 km/h 1.6 km/h 83% 0.0 mm 0 W/m2
23:21 16.7 °C 13.6 °C 1022.0 hPa Calm   3.2 km/h 82% 0.0 mm 0 W/m2
23:26 16.6 °C 13.5 °C 1021.7 hPa ENE 3.2 km/h 3.2 km/h 82% 0.0 mm 0 W/m2
23:31 16.6 °C 13.5 °C 1021.7 hPa NNE 1.4 km/h 1.6 km/h 82% 0.0 mm 0 W/m2
23:36 16.6 °C 13.5 °C 1022.0 hPa Calm   1.6 km/h 82% 0.0 mm 0 W/m2
23:41 16.6 °C 13.5 °C 1021.7 hPa Calm   1.6 km/h 82% 0.0 mm 0 W/m2
23:46 16.6 °C 13.5 °C 1021.7 hPa Calm   1.6 km/h 82% 0.0 mm 0 W/m2
23:52 16.5 °C 13.4 °C 1021.7 hPa NNE 1.4 km/h 4.8 km/h 82% 0.0 mm 0 W/m2
23:57 16.5 °C 13.4 °C 1021.7 hPa Calm     82% 0.0 mm 0 W/m2
Juneau County Weather
Compliments of Weather Underground - 4 mb